[Iaude] MPEC L51: 2020 LO [a=0.97,e=0.16,i=10.0,H=26.7]

mpec at marsden.cfa.harvard.edu mpec at marsden.cfa.harvard.edu
Fri Jun 12 22:40:58 EDT 2020


M.P.E.C. 2020-L51                                 Issued 2020 June 13, 02:39 UT

     The Minor Planet Electronic Circulars contain information on unusual
         minor planets and routine data on comets.  They are published
    on behalf of Division F of the International Astronomical Union by the
          Minor Planet Center, Smithsonian Astrophysical Observatory,
                          Cambridge, MA 02138, U.S.A.

             Prepared using the Tamkin Foundation Computer Network

                              MPC at CFA.HARVARD.EDU
            URL https://www.minorplanetcenter.net/    ISSN 1523-6714

                                    2020 LO                                     


Observations:
     K20L00O* C2020 06 12.32523 16 57 30.69 +27 21 43.5          20.5 GVEL051G96
     K20L00O  C2020 06 12.33041 16 57 28.70 +27 21 43.5          21.2 GVEL051G96
     K20L00O  C2020 06 12.33558 16 57 26.69 +27 21 42.8          20.8 GVEL051G96
     K20L00O  C2020 06 12.34076 16 57 24.67 +27 21 43.2          20.6 GVEL051G96
     K20L00O  C2020 06 12.35317 16 57 19.88 +27 21 41.4          21.1 GVEL051I52
     K20L00O  C2020 06 12.35443 16 57 19.39 +27 21 40.6                VEL051I52
     K20L00O  C2020 06 12.35569 16 57 18.76 +27 21 41.1          19.9 GVEL051I52
     K20L00O  C2020 06 12.35695 16 57 18.44 +27 21 41.7          19.5 GVEL051I52
     K20L00O  C2020 06 12.37302 16 57 12.24 +27 21 39.2          20.5 GVEL051V06
     K20L00O  C2020 06 12.37480 16 57 11.53 +27 21 38.5          20.9 GVEL051V06
     K20L00O  C2020 06 12.37657 16 57 10.87 +27 21 38.1          21.3 GVEL051V06
     K20L00O  C2020 06 12.37836 16 57 10.21 +27 21 37.9          21.2 GVEL051V06
     K20L00O  C2020 06 12.39660 16 57 03.47 +27 21 32.8          20.7 GVEL051G96
     K20L00O  C2020 06 12.39781 16 57 03.02 +27 21 33.2          21.3 GVEL051G96
     K20L00O  C2020 06 12.39903 16 57 02.62 +27 21 32.4                VEL051G96
     K20L00O KC2020 06 12.87041716 55 14.16 +27 21 48.2          23.1 GVEL051598
     K20L00O KC2020 06 12.88933416 55 07.21 +27 21 51.2          21.0 GVEL051L01
     K20L00O KC2020 06 12.89169216 55 06.45 +27 21 52.1          21.1 GVEL051L01
     K20L00O KC2020 06 12.89403916 55 05.69 +27 21 52.6          21.3 GVEL051L01
     K20L00O KC2020 06 12.89873716 55 04.06 +27 21 53.7          21.2 GVEL051L01
     K20L00O KC2020 06 12.90345616 55 02.49 +27 21 54.3          21.3 GVEL051L01
     K20L00O KC2020 06 12.92229116 54 56.18 +27 21 57.3          21.2 GVEL051L01
     K20L00O pC2020 06 12.92754916 54 54.45 +27 21 58.3          21.4 GVEL051L01
     K20L00O KC2020 06 12.93555016 54 52.27 +27 22 03.7          21.6 GVEL051598
     K20L00O KC2020 06 12.94867816 54 47.86 +27 22 04.9          20.3 GVEL051598
     K20L00O KC2020 06 13.05494116 54 13.39 +27 21 54.6          21.2 GVEL051104
     K20L00O KC2020 06 13.06612016 54 09.90 +27 21 52.6          21.3 GVEL051104

Observer details:
104 San Marcello Pistoiese.  Observers P. Bacci, M. Maestripieri.  Measurers
    P. Bacci, L. Tesi, G. Fagioli.  0.60-m reflector + CCD.
598 Loiano.  Observer A. Carbognani.
G96 Mt. Lemmon Survey.  Observer H. Groeller.  Measurers E. J. Christensen, G.
    A. Farneth, D. C. Fuls, A. R. Gibbs, A. D. Grauer, H. Groeller, R. A.
    Kowalski, S. M. Larson, G. J. Leonard, T. A. Pruyne, D. Rankin, R. L.
    Seaman, F. C. Shelly, K. W. Wierzchos.  1.5-m reflector + 10K CCD.
I52 Steward Observatory, Mt. Lemmon Station.  Observer G. J. Leonard.
    Measurers E. J. Christensen, G. A. Farneth, D. C. Fuls, A. R. Gibbs, A. D.
    Grauer, H. Groeller, R. A. Kowalski, S. M. Larson, G. J. Leonard, T. A.
    Pruyne, D. Rankin, R. L. Seaman, F. C. Shelly, K. W. Wierzchos.  1.0-m
    reflector + CCD.
L01 Visnjan Observatory, Tican.  Observer K. Korlevic.  1.0-m f/2.9 reflector
    + CCD.
V06 Catalina Sky Survey-Kuiper.  Observer G. J. Leonard.  Measurers E. J.
    Christensen, G. A. Farneth, D. C. Fuls, A. R. Gibbs, A. D. Grauer, H.
    Groeller, R. A. Kowalski, S. M. Larson, G. J. Leonard, T. A. Pruyne, D.
    Rankin, R. L. Seaman, F. C. Shelly, K. W. Wierzchos.  1.55-m reflector +
    CCD.

Orbital elements:
2020 LO                                                  Earth MOID = 0.0000 AU
Epoch 2020 May 31.0 TT = JDT 2459000.5                  Veres
M  93.16400              (2000.0)            P               Q
n   1.03137906     Peri.  245.00154     -0.73754692     -0.65421567
a   0.9701909      Node   253.66546     +0.66524288     -0.66126941
e   0.1641633      Incl.   10.04680     +0.11608815     -0.36704852
P   0.96           H   26.7           G   0.15           U   8
Residuals in seconds of arc
200612 G96  0.6-  0.6+    200612 V06  0.4-  0.0     200612 L01  0.5+  0.3+
200612 G96  0.0   0.5+    200612 V06  0.4-  0.1-    200612 L01  0.2-  0.3+
200612 G96  0.3+  0.0     200612 V06  0.2-  0.1+    200612 L01  0.1-  0.1-
200612 G96  0.3+  0.6+    200612 G96  0.0   0.7-    200612 L01  0.1+  0.5-
200612 I52  0.6+  0.2-    200612 G96  0.1-  0.0     200612 L01  0.6+  0.2-
200612 I52  0.6+  0.9-    200612 G96  0.5+  0.4-    200612 598  0.5-  0.1+
200612 I52  1.4-  0.3-    200612 598  0.1-  0.2-    200612 598  0.4-  0.1+
200612 I52  0.8+  0.5+    200612 L01  0.2-  0.0     200613 104  0.4+  0.5-
200612 V06  0.1+  0.3+    200612 L01  0.1+  0.3+    200613 104  0.3-  0.6+

Ephemeris:
2020 LO                  a,e,i = 0.97, 0.16, 10                  q = 0.8109
Date    TT    R. A. (2000) Decl.     Delta      r    Elong.  Phase     V
2020 05 14    04 08 03.9 -26 18 10   0.08096 0.9564    46.2   130.3    26.9
...
2020 05 29    03 29 44.6 -27 34 32   0.02370 0.9988    50.9   128.0    24.1
...
2020 06 06    18 45 40.3 +22 33 21   0.0088701.0202   127.6    52.0    18.4
...
2020 06 12    16 59 11.9 +27 21 10   0.03069 1.0352   129.2    49.5    21.1
2020 06 13    16 54 35.6 +27 23 22   0.03446 1.0376   128.8    49.7    21.3
2020 06 14    16 50 54.1 +27 23 30   0.03824 1.0399   128.5    49.9    21.6
...
2020 06 20    16 38 44.1 +27 00 33   0.06109 1.0536   126.3    51.0    22.6
...
2020 06 28    16 33 36.2 +25 57 05   0.09177 1.0700   123.5    52.4    23.6
...
2020 07 13    16 35 58.5 +23 10 53   0.1492  1.0950   118.2    54.9    24.8

M. P. C. Staff               (C) Copyright 2020 MPC           M.P.E.C. 2020-L51




More information about the Iaude mailing list